Location: Mountain View
(37.3861°N, 122.0839°W)
Time: 20:44:47
(UTC-07:00)

ACS3 Solar Sail - Pass Details

Date: 15 May 2026
Orbit: 875 x 955 km, 97.2° (Epoch: 9 June)

Event Time Altitude Azimuth Distance (km) Brightness Sun altitude
Rises 02:57:42 0° 358° (N) 3,485 5.5 -27.7°
Reaches altitude 10° 03:00:27 10° 346° (NNW) 2,537 4.5 -27.4°
Enters shadow 03:04:57 26° 293° (WNW) 1,655 2.9 -27.0°
